Location: D�nning
(49.2479°N, 12.8491°E)
Time: 06:08:37
(UTC+00:00)

Cosmos 1269 Rocket - Pass Details

Date: 18 September 2020
Orbit: 772 x 780 km, 74.1° (Epoch: 27 October)

Event Time Altitude Azimuth Distance (km) Brightness Sun altitude
Rises 19:33:05 0° 338° (NNW) 3,274 8.1 -22.3°
Reaches altitude 10° 19:35:31 10° 341° (NNW) 2,343 7.2 -22.6°
Maximum altitude 19:40:49 67° 64° (ENE) 849 4.0 -23.4°
Enters shadow 19:41:28 60° 105° (ESE) 891 4.0 -23.5°
